Year,Month,Day,Hour,Minute,Value (Times are PST for temperature in C)
2010,03,19,00,00,5.90
2010,03,19,00,01,5.90
2010,03,19,00,02,5.90
2010,03,19,00,03,5.90
2010,03,19,00,04,5.90
2010,03,19,00,05,5.90
2010,03,19,00,06,5.80
2010,03,19,00,07,5.80
2010,03,19,00,08,5.80
2010,03,19,00,09,5.80
2010,03,19,00,10,5.80
2010,03,19,00,11,5.80
2010,03,19,00,12,5.80
2010,03,19,00,13,5.80
2010,03,19,00,14,5.80
2010,03,19,00,15,5.70
2010,03,19,00,16,5.80
2010,03,19,00,17,5.70
2010,03,19,00,18,5.70
2010,03,19,00,19,5.70
2010,03,19,00,20,5.70
2010,03,19,00,21,5.70
2010,03,19,00,22,5.70
2010,03,19,00,23,5.70
2010,03,19,00,24,5.70
2010,03,19,00,25,5.70
2010,03,19,00,26,5.70
2010,03,19,00,27,5.70
2010,03,19,00,28,5.70
2010,03,19,00,29,5.70
2010,03,19,00,30,5.70
2010,03,19,00,31,5.70
2010,03,19,00,32,5.70
2010,03,19,00,33,5.70
2010,03,19,00,34,5.60
2010,03,19,00,35,5.60
2010,03,19,00,36,5.60
2010,03,19,00,37,5.60
2010,03,19,00,38,5.60
2010,03,19,00,39,5.60
2010,03,19,00,40,5.60
2010,03,19,00,41,5.60
2010,03,19,00,42,5.60
2010,03,19,00,43,5.60
2010,03,19,00,44,5.60
2010,03,19,00,45,5.60
2010,03,19,00,46,5.60
2010,03,19,00,47,5.60
2010,03,19,00,48,5.60
2010,03,19,00,49,5.60
2010,03,19,00,50,5.60
2010,03,19,00,51,5.60
2010,03,19,00,52,5.60
2010,03,19,00,53,5.60
2010,03,19,00,54,5.60
2010,03,19,00,55,5.60
2010,03,19,00,56,5.60
2010,03,19,00,57,5.60
2010,03,19,00,58,5.60
2010,03,19,00,59,5.60
2010,03,19,01,00,5.60
2010,03,19,01,01,5.60
2010,03,19,01,02,5.50
2010,03,19,01,03,5.50
2010,03,19,01,04,5.50
2010,03,19,01,05,5.50
2010,03,19,01,06,5.50
2010,03,19,01,07,5.50
2010,03,19,01,08,5.50
2010,03,19,01,09,5.50
2010,03,19,01,10,5.50
2010,03,19,01,11,5.50
2010,03,19,01,12,5.50
2010,03,19,01,13,5.50
2010,03,19,01,14,5.40
2010,03,19,01,15,5.40
2010,03,19,01,16,5.40
2010,03,19,01,17,5.40
2010,03,19,01,18,5.40
2010,03,19,01,19,5.40
2010,03,19,01,20,5.40
2010,03,19,01,21,5.40
2010,03,19,01,22,5.40
2010,03,19,01,23,5.40
2010,03,19,01,24,5.40
2010,03,19,01,25,5.40
2010,03,19,01,26,5.40
2010,03,19,01,27,5.40
2010,03,19,01,28,5.40
2010,03,19,01,29,5.40
2010,03,19,01,30,5.40
2010,03,19,01,31,5.40
2010,03,19,01,32,5.30
2010,03,19,01,33,5.30
2010,03,19,01,34,5.30
2010,03,19,01,35,5.30
2010,03,19,01,36,5.30
2010,03,19,01,37,5.30
2010,03,19,01,38,5.30
2010,03,19,01,39,5.30
2010,03,19,01,40,5.30
2010,03,19,01,41,5.30
2010,03,19,01,42,5.30
2010,03,19,01,43,5.30
2010,03,19,01,44,5.30
2010,03,19,01,45,5.30
2010,03,19,01,46,5.30
2010,03,19,01,47,5.20
2010,03,19,01,48,5.20
2010,03,19,01,49,5.20
2010,03,19,01,50,5.20
2010,03,19,01,51,5.20
2010,03,19,01,52,5.20
2010,03,19,01,53,5.20
2010,03,19,01,54,5.20
2010,03,19,01,55,5.20
2010,03,19,01,56,5.20
2010,03,19,01,57,5.10
2010,03,19,01,58,5.10
2010,03,19,01,59,5.10
2010,03,19,02,00,5.10
2010,03,19,02,01,5.10
2010,03,19,02,02,5.10
2010,03,19,02,03,5.10
2010,03,19,02,04,5.10
2010,03,19,02,05,5.10
2010,03,19,02,06,5.10
2010,03,19,02,07,5.10
2010,03,19,02,08,5.10
2010,03,19,02,09,5.10
2010,03,19,02,10,5.10
2010,03,19,02,11,5.10
2010,03,19,02,12,5.10
2010,03,19,02,13,5.10
2010,03,19,02,14,5.10
2010,03,19,02,15,5.20
2010,03,19,02,16,5.20
2010,03,19,02,17,5.20
2010,03,19,02,18,5.30
2010,03,19,02,19,5.30
2010,03,19,02,20,5.30
2010,03,19,02,21,5.40
2010,03,19,02,22,5.40
2010,03,19,02,23,5.50
2010,03,19,02,24,5.50
2010,03,19,02,25,5.60
2010,03,19,02,26,5.60
2010,03,19,02,27,5.60
2010,03,19,02,28,5.60
2010,03,19,02,29,5.60
2010,03,19,02,30,5.60
2010,03,19,02,31,5.60
2010,03,19,02,32,5.60
2010,03,19,02,33,5.60
2010,03,19,02,34,5.60
2010,03,19,02,35,5.60
2010,03,19,02,36,5.60
2010,03,19,02,37,5.60
2010,03,19,02,38,5.60
2010,03,19,02,39,5.60
2010,03,19,02,40,5.60
2010,03,19,02,41,5.60
2010,03,19,02,42,5.50
2010,03,19,02,43,5.50
2010,03,19,02,44,5.40
2010,03,19,02,45,5.40
2010,03,19,02,46,5.30
2010,03,19,02,47,5.30
2010,03,19,02,48,5.30
2010,03,19,02,49,5.20
2010,03,19,02,50,5.10
2010,03,19,02,51,5.00
2010,03,19,02,52,4.90
2010,03,19,02,53,4.80
2010,03,19,02,54,4.80
2010,03,19,02,55,4.80
2010,03,19,02,56,4.80
2010,03,19,02,57,4.80
2010,03,19,02,58,4.80
2010,03,19,02,59,4.80
2010,03,19,03,00,4.80
2010,03,19,03,01,4.80
2010,03,19,03,02,4.80
2010,03,19,03,03,4.70
2010,03,19,03,04,4.70
2010,03,19,03,05,4.70
2010,03,19,03,06,4.70
2010,03,19,03,07,4.70
2010,03,19,03,08,4.70
2010,03,19,03,09,4.70
2010,03,19,03,10,4.70
2010,03,19,03,11,4.60
2010,03,19,03,12,4.60
2010,03,19,03,13,4.60
2010,03,19,03,14,4.60
2010,03,19,03,15,4.60
2010,03,19,03,16,4.60
2010,03,19,03,17,4.70
2010,03,19,03,18,4.70
2010,03,19,03,19,4.70
2010,03,19,03,20,4.80
2010,03,19,03,21,4.90
2010,03,19,03,22,4.90
2010,03,19,03,23,4.90
2010,03,19,03,24,4.90
2010,03,19,03,25,4.90
2010,03,19,03,26,4.90
2010,03,19,03,27,4.90
2010,03,19,03,28,5.00
2010,03,19,03,29,5.00
2010,03,19,03,30,5.00
2010,03,19,03,31,5.10
2010,03,19,03,32,5.10
2010,03,19,03,33,5.20
2010,03,19,03,34,5.20
2010,03,19,03,35,5.20
2010,03,19,03,36,5.30
2010,03,19,03,37,5.30
2010,03,19,03,38,5.40
2010,03,19,03,39,5.40
2010,03,19,03,40,5.30
2010,03,19,03,41,5.30
2010,03,19,03,42,5.30
2010,03,19,03,43,5.30
2010,03,19,03,44,5.20
2010,03,19,03,45,5.20
2010,03,19,03,46,5.20
2010,03,19,03,47,5.20
2010,03,19,03,48,5.20
2010,03,19,03,49,5.20
2010,03,19,03,50,5.20
2010,03,19,03,51,5.20
2010,03,19,03,52,5.20
2010,03,19,03,53,5.20
2010,03,19,03,54,5.20
2010,03,19,03,55,5.20
2010,03,19,03,56,5.20
2010,03,19,03,57,5.20
2010,03,19,03,58,5.20
2010,03,19,03,59,5.30
2010,03,19,04,00,5.30
2010,03,19,04,01,5.30
2010,03,19,04,02,5.20
2010,03,19,04,03,5.20
2010,03,19,04,04,5.20
2010,03,19,04,05,5.20
2010,03,19,04,06,5.20
2010,03,19,04,07,5.20
2010,03,19,04,08,5.20
2010,03,19,04,09,5.20
2010,03,19,04,10,5.20
2010,03,19,04,11,5.20
2010,03,19,04,12,5.20
2010,03,19,04,13,5.10
2010,03,19,04,14,5.10
2010,03,19,04,15,5.10
2010,03,19,04,16,5.10
2010,03,19,04,17,5.10
2010,03,19,04,18,5.00
2010,03,19,04,19,5.00
2010,03,19,04,20,5.00
2010,03,19,04,21,5.10
2010,03,19,04,22,5.10
2010,03,19,04,23,5.10
2010,03,19,04,24,5.10
2010,03,19,04,25,5.00
2010,03,19,04,26,5.00
2010,03,19,04,27,4.90
2010,03,19,04,28,4.90
2010,03,19,04,29,4.90
2010,03,19,04,30,4.80
2010,03,19,04,31,4.80
2010,03,19,04,32,4.80
2010,03,19,04,33,4.80
2010,03,19,04,34,4.80
2010,03,19,04,35,4.70
2010,03,19,04,36,4.70
2010,03,19,04,37,4.70
2010,03,19,04,38,4.70
2010,03,19,04,39,4.70
2010,03,19,04,40,4.70
2010,03,19,04,41,4.70
2010,03,19,04,42,4.70
2010,03,19,04,43,4.60
2010,03,19,04,44,4.60
2010,03,19,04,45,4.50
2010,03,19,04,46,4.50
2010,03,19,04,47,4.40
2010,03,19,04,48,4.40
2010,03,19,04,49,4.30
2010,03,19,04,50,4.30
2010,03,19,04,51,4.30
2010,03,19,04,52,4.30
2010,03,19,04,53,4.30
2010,03,19,04,54,4.30
2010,03,19,04,55,4.30
2010,03,19,04,56,4.30
2010,03,19,04,57,4.30
2010,03,19,04,58,4.30
2010,03,19,04,59,4.30
2010,03,19,05,00,4.30
2010,03,19,05,01,4.30
2010,03,19,05,02,4.20
2010,03,19,05,03,4.20
2010,03,19,05,04,4.20
2010,03,19,05,05,4.10
2010,03,19,05,06,4.10
2010,03,19,05,07,4.10
2010,03,19,05,08,4.10
2010,03,19,05,09,4.10
2010,03,19,05,10,4.10
2010,03,19,05,11,4.10
2010,03,19,05,12,4.00
2010,03,19,05,13,4.10
2010,03,19,05,14,4.10
2010,03,19,05,15,4.10
2010,03,19,05,16,4.10
2010,03,19,05,17,4.10
2010,03,19,05,18,4.10
2010,03,19,05,19,4.10
2010,03,19,05,20,4.10
2010,03,19,05,21,4.10
2010,03,19,05,22,4.00
2010,03,19,05,23,4.00
2010,03,19,05,24,4.00
2010,03,19,05,25,4.00
2010,03,19,05,26,4.00
2010,03,19,05,27,4.00
2010,03,19,05,28,4.00
2010,03,19,05,29,4.00
2010,03,19,05,30,3.90
2010,03,19,05,31,3.90
2010,03,19,05,32,3.90
2010,03,19,05,33,3.80
2010,03,19,05,34,3.80
2010,03,19,05,35,3.70
2010,03,19,05,36,3.70
2010,03,19,05,37,3.70
2010,03,19,05,38,3.60
2010,03,19,05,39,3.60
2010,03,19,05,40,3.60
2010,03,19,05,41,3.60
2010,03,19,05,42,3.60
2010,03,19,05,43,3.60
2010,03,19,05,44,3.50
2010,03,19,05,45,3.50
2010,03,19,05,46,3.60
2010,03,19,05,47,3.60
2010,03,19,05,48,3.60
2010,03,19,05,49,3.60
2010,03,19,05,50,3.60
2010,03,19,05,51,3.60
2010,03,19,05,52,3.50
2010,03,19,05,53,3.50
2010,03,19,05,54,3.50
2010,03,19,05,55,3.50
2010,03,19,05,56,3.50
2010,03,19,05,57,3.50
2010,03,19,05,58,3.50
2010,03,19,05,59,3.50
2010,03,19,06,00,3.50
2010,03,19,06,01,3.50
2010,03,19,06,02,3.50
2010,03,19,06,03,3.50
2010,03,19,06,04,3.60
2010,03,19,06,05,3.60
2010,03,19,06,06,3.60
2010,03,19,06,07,3.60
2010,03,19,06,08,3.60
2010,03,19,06,09,3.60
2010,03,19,06,10,3.60
2010,03,19,06,11,3.60
2010,03,19,06,12,3.60
2010,03,19,06,13,3.60
2010,03,19,06,14,3.60
2010,03,19,06,15,3.60
2010,03,19,06,16,3.60
2010,03,19,06,17,3.60
2010,03,19,06,18,3.60
2010,03,19,06,19,3.60
2010,03,19,06,20,3.60
2010,03,19,06,21,3.60
2010,03,19,06,22,3.60
2010,03,19,06,23,3.60
2010,03,19,06,24,3.60
2010,03,19,06,25,3.60
2010,03,19,06,26,3.60
2010,03,19,06,27,3.60
2010,03,19,06,28,3.60
2010,03,19,06,29,3.60
2010,03,19,06,30,3.60
2010,03,19,06,31,3.60
2010,03,19,06,32,3.60
2010,03,19,06,33,3.60
2010,03,19,06,34,3.70
2010,03,19,06,35,3.70
2010,03,19,06,36,3.70
2010,03,19,06,37,3.70
2010,03,19,06,38,3.70
2010,03,19,06,39,3.70
2010,03,19,06,40,3.70
2010,03,19,06,41,3.70
2010,03,19,06,42,3.60
2010,03,19,06,43,3.60
2010,03,19,06,44,3.60
2010,03,19,06,45,3.50
2010,03,19,06,46,3.50
2010,03,19,06,47,3.40
2010,03,19,06,48,3.40
2010,03,19,06,49,3.30
2010,03,19,06,50,3.30
2010,03,19,06,51,3.30
2010,03,19,06,52,3.30
2010,03,19,06,53,3.30
2010,03,19,06,54,3.20
2010,03,19,06,55,3.20
2010,03,19,06,56,3.20
2010,03,19,06,57,3.20
2010,03,19,06,58,3.20
2010,03,19,06,59,3.20
2010,03,19,07,00,3.10
2010,03,19,07,01,3.10
2010,03,19,07,02,3.10
2010,03,19,07,03,3.20
2010,03,19,07,04,3.20
2010,03,19,07,05,3.20
2010,03,19,07,06,3.20
2010,03,19,07,07,3.20
2010,03,19,07,08,3.20
2010,03,19,07,09,3.20
2010,03,19,07,10,3.20
2010,03,19,07,11,3.20
2010,03,19,07,12,3.30
2010,03,19,07,13,3.30
2010,03,19,07,14,3.30
2010,03,19,07,15,3.30
2010,03,19,07,16,3.30
2010,03,19,07,17,3.30
2010,03,19,07,18,3.40
2010,03,19,07,19,3.40
2010,03,19,07,20,3.40
2010,03,19,07,21,3.40
2010,03,19,07,22,3.50
2010,03,19,07,23,3.50
2010,03,19,07,24,3.50
2010,03,19,07,25,3.50
2010,03,19,07,26,3.50
2010,03,19,07,27,3.50
2010,03,19,07,28,3.50
2010,03,19,07,29,3.50
2010,03,19,07,30,3.50
2010,03,19,07,31,3.40
2010,03,19,07,32,3.40
2010,03,19,07,33,3.40
2010,03,19,07,34,3.40
2010,03,19,07,35,3.40
2010,03,19,07,36,3.40
2010,03,19,07,37,3.40
2010,03,19,07,38,3.40
2010,03,19,07,39,3.40
2010,03,19,07,40,3.40
2010,03,19,07,41,3.40
2010,03,19,07,42,3.40
2010,03,19,07,43,3.50
2010,03,19,07,44,3.50
2010,03,19,07,45,3.50
2010,03,19,07,46,3.60
2010,03,19,07,47,3.60
2010,03,19,07,48,3.60
2010,03,19,07,49,3.60
2010,03,19,07,50,3.60
2010,03,19,07,51,3.60
2010,03,19,07,52,3.60
2010,03,19,07,53,3.70
2010,03,19,07,54,3.70
2010,03,19,07,55,3.70
2010,03,19,07,56,3.70
2010,03,19,07,57,3.70
2010,03,19,07,58,3.70
2010,03,19,07,59,3.70
2010,03,19,08,00,3.70
2010,03,19,08,01,3.70
2010,03,19,08,02,3.70
2010,03,19,08,03,3.60
2010,03,19,08,04,3.60
2010,03,19,08,05,3.60
2010,03,19,08,06,3.60
2010,03,19,08,07,3.70
2010,03,19,08,08,3.70
2010,03,19,08,09,3.70
2010,03,19,08,10,3.70
2010,03,19,08,11,3.70
2010,03,19,08,12,3.70
2010,03,19,08,13,3.70
2010,03,19,08,14,3.70
2010,03,19,08,15,3.70
2010,03,19,08,16,3.70
2010,03,19,08,17,3.80
2010,03,19,08,18,3.80
2010,03,19,08,19,3.80
2010,03,19,08,20,3.80
2010,03,19,08,21,3.80
2010,03,19,08,22,3.80
2010,03,19,08,23,3.80
2010,03,19,08,24,3.90
2010,03,19,08,25,3.90
2010,03,19,08,26,3.90
2010,03,19,08,27,3.90
2010,03,19,08,28,3.90
2010,03,19,08,29,4.00
2010,03,19,08,30,4.00
2010,03,19,08,31,4.00
2010,03,19,08,32,4.00
2010,03,19,08,33,4.00
2010,03,19,08,34,4.00
2010,03,19,08,35,4.00
2010,03,19,08,36,4.00
2010,03,19,08,37,4.10
2010,03,19,08,38,4.10
2010,03,19,08,39,4.10
2010,03,19,08,40,4.10
2010,03,19,08,41,4.10
2010,03,19,08,42,4.20
2010,03,19,08,43,4.20
2010,03,19,08,44,4.20
2010,03,19,08,45,4.30
2010,03,19,08,46,4.30
2010,03,19,08,47,4.40
2010,03,19,08,48,4.50
2010,03,19,08,49,4.50
2010,03,19,08,50,4.60
2010,03,19,08,51,4.70
2010,03,19,08,52,4.70
2010,03,19,08,53,4.80
2010,03,19,08,54,4.80
2010,03,19,08,55,4.90
2010,03,19,08,56,4.90
2010,03,19,08,57,5.00
2010,03,19,08,58,5.00
2010,03,19,08,59,5.00
2010,03,19,09,00,5.10
2010,03,19,09,01,5.10
2010,03,19,09,02,5.20
2010,03,19,09,03,5.20
2010,03,19,09,04,5.20
2010,03,19,09,05,5.20
2010,03,19,09,06,5.30
2010,03,19,09,07,5.30
2010,03,19,09,08,5.30
2010,03,19,09,09,5.30
2010,03,19,09,10,5.40
2010,03,19,09,11,5.40
2010,03,19,09,12,5.40
2010,03,19,09,13,5.40
2010,03,19,09,14,5.50
2010,03,19,09,15,5.50
2010,03,19,09,16,5.50
2010,03,19,09,17,5.60
2010,03,19,09,18,5.60
2010,03,19,09,19,5.60
2010,03,19,09,20,5.70
2010,03,19,09,21,5.70
2010,03,19,09,22,5.80
2010,03,19,09,23,5.80
2010,03,19,09,24,5.80
2010,03,19,09,25,5.90
2010,03,19,09,26,5.90
2010,03,19,09,27,6.00
2010,03,19,09,28,6.00
2010,03,19,09,29,6.10
2010,03,19,09,30,6.20
2010,03,19,09,31,6.20
2010,03,19,09,32,6.30
2010,03,19,09,33,6.30
2010,03,19,09,34,6.40
2010,03,19,09,35,6.40
2010,03,19,09,36,6.40
2010,03,19,09,37,6.50
2010,03,19,09,38,6.60
2010,03,19,09,39,6.60
2010,03,19,09,40,6.60
2010,03,19,09,41,6.60
2010,03,19,09,42,6.60
2010,03,19,09,43,6.60
2010,03,19,09,44,6.60
2010,03,19,09,45,6.60
2010,03,19,09,46,6.60
2010,03,19,09,47,6.70
2010,03,19,09,48,6.70
2010,03,19,09,49,6.70
2010,03,19,09,50,6.70
2010,03,19,09,51,6.70
2010,03,19,09,52,6.80
2010,03,19,09,53,6.80
2010,03,19,09,54,6.80
2010,03,19,09,55,6.80
2010,03,19,09,56,6.80
2010,03,19,09,57,6.90
2010,03,19,09,58,6.90
2010,03,19,09,59,6.90
2010,03,19,10,00,7.00
2010,03,19,10,01,7.00
2010,03,19,10,02,7.00
2010,03,19,10,03,7.10
2010,03,19,10,04,7.10
2010,03,19,10,05,7.20
2010,03,19,10,06,7.20
2010,03,19,10,07,7.30
2010,03,19,10,08,7.30
2010,03,19,10,09,7.40
2010,03,19,10,10,7.40
2010,03,19,10,11,7.40
2010,03,19,10,12,7.50
2010,03,19,10,13,7.50
2010,03,19,10,14,7.60
2010,03,19,10,15,7.60
2010,03,19,10,16,7.70
2010,03,19,10,17,7.70
2010,03,19,10,18,7.80
2010,03,19,10,19,7.80
2010,03,19,10,20,7.80
2010,03,19,10,21,7.90
2010,03,19,10,22,7.90
2010,03,19,10,23,8.00
2010,03,19,10,24,8.00
2010,03,19,10,25,8.10
2010,03,19,10,26,8.10
2010,03,19,10,27,8.20
2010,03,19,10,28,8.20
2010,03,19,10,29,8.20
2010,03,19,10,30,8.20
2010,03,19,10,31,8.20
2010,03,19,10,32,8.20
2010,03,19,10,33,8.20
2010,03,19,10,34,8.20
2010,03,19,10,35,8.20
2010,03,19,10,36,8.30
2010,03,19,10,37,8.30
2010,03,19,10,38,8.30
2010,03,19,10,39,8.30
2010,03,19,10,40,8.30
2010,03,19,10,41,8.30
2010,03,19,10,42,8.30
2010,03,19,10,43,8.30
2010,03,19,10,44,8.30
2010,03,19,10,45,8.30
2010,03,19,10,46,8.40
2010,03,19,10,47,8.40
2010,03,19,10,48,8.40
2010,03,19,10,49,8.40
2010,03,19,10,50,8.50
2010,03,19,10,51,8.50
2010,03,19,10,52,8.60
2010,03,19,10,53,8.60
2010,03,19,10,54,8.60
2010,03,19,10,55,8.60
2010,03,19,10,56,8.60
2010,03,19,10,57,8.60
2010,03,19,10,58,8.70
2010,03,19,10,59,8.70
2010,03,19,11,00,8.80
2010,03,19,11,01,8.80
2010,03,19,11,02,8.80
2010,03,19,11,03,8.90
2010,03,19,11,04,8.90
2010,03,19,11,05,9.00
2010,03,19,11,06,9.00
2010,03,19,11,07,9.00
2010,03,19,11,08,9.10
2010,03,19,11,09,9.10
2010,03,19,11,10,9.10
2010,03,19,11,11,9.10
2010,03,19,11,12,9.20
2010,03,19,11,13,9.20
2010,03,19,11,14,9.30
2010,03,19,11,15,9.30
2010,03,19,11,16,9.40
2010,03,19,11,17,9.40
2010,03,19,11,18,9.50
2010,03,19,11,19,9.60
2010,03,19,11,20,9.60
2010,03,19,11,21,9.70
2010,03,19,11,22,9.70
2010,03,19,11,23,9.80
2010,03,19,11,24,9.80
2010,03,19,11,25,9.80
2010,03,19,11,26,9.80
2010,03,19,11,27,9.90
2010,03,19,11,28,9.90
2010,03,19,11,29,9.90
2010,03,19,11,30,10.00
2010,03,19,11,31,10.00
2010,03,19,11,32,10.10
2010,03,19,11,33,10.10
2010,03,19,11,34,10.20
2010,03,19,11,35,10.20
2010,03,19,11,36,10.20
2010,03,19,11,37,10.20
2010,03,19,11,38,10.20
2010,03,19,11,39,10.30
2010,03,19,11,40,10.30
2010,03,19,11,41,10.30
2010,03,19,11,42,10.30
2010,03,19,11,43,10.30
2010,03,19,11,44,10.30
2010,03,19,11,45,10.30
2010,03,19,11,46,10.40
2010,03,19,11,47,10.40
2010,03,19,11,48,10.40
2010,03,19,11,49,10.40
2010,03,19,11,50,10.40
2010,03,19,11,51,10.40
2010,03,19,11,52,10.40
2010,03,19,11,53,10.40
2010,03,19,11,54,10.40
2010,03,19,11,55,10.30
2010,03,19,11,56,10.30
2010,03,19,11,57,10.20
2010,03,19,11,58,10.20
2010,03,19,11,59,10.20
2010,03,19,12,00,10.10
2010,03,19,12,01,10.10
2010,03,19,12,02,10.10
2010,03,19,12,03,10.00
2010,03,19,12,04,10.00
2010,03,19,12,05,10.00
2010,03,19,12,06,10.00
2010,03,19,12,07,10.00
2010,03,19,12,08,10.10
2010,03,19,12,09,10.10
2010,03,19,12,10,10.10
2010,03,19,12,11,10.20
2010,03,19,12,12,10.20
2010,03,19,12,13,10.20
2010,03,19,12,14,10.30
2010,03,19,12,15,10.30
2010,03,19,12,16,10.40
2010,03,19,12,17,10.40
2010,03,19,12,18,10.50
2010,03,19,12,19,10.60
2010,03,19,12,20,10.70
2010,03,19,12,21,10.80
2010,03,19,12,22,10.80
2010,03,19,12,23,10.90
2010,03,19,12,24,11.00
2010,03,19,12,25,11.00
2010,03,19,12,26,11.10
2010,03,19,12,27,11.20
2010,03,19,12,28,11.20
2010,03,19,12,29,11.20
2010,03,19,12,30,11.20
2010,03,19,12,31,11.20
2010,03,19,12,32,11.20
2010,03,19,12,33,11.30
2010,03,19,12,34,11.30
2010,03,19,12,35,11.30
2010,03,19,12,36,11.30
2010,03,19,12,37,11.30
2010,03,19,12,38,11.30
2010,03,19,12,39,11.30
2010,03,19,12,40,11.30
2010,03,19,12,41,11.30
2010,03,19,12,42,11.30
2010,03,19,12,43,11.40
2010,03,19,12,44,11.40
2010,03,19,12,45,11.40
2010,03,19,12,46,11.50
2010,03,19,12,47,11.50
2010,03,19,12,48,11.60
2010,03,19,12,49,11.60
2010,03,19,12,50,11.70
2010,03,19,12,51,11.70
2010,03,19,12,52,11.80
2010,03,19,12,53,11.80
2010,03,19,12,54,11.80
2010,03,19,12,55,11.80
2010,03,19,12,56,11.80
2010,03,19,12,57,11.80
2010,03,19,12,58,11.80
2010,03,19,12,59,11.80
2010,03,19,13,00,11.70
2010,03,19,13,01,11.70
2010,03,19,13,02,11.70
2010,03,19,13,03,11.80
2010,03,19,13,04,11.80
2010,03,19,13,05,11.80
2010,03,19,13,06,11.80
2010,03,19,13,07,11.80
2010,03,19,13,08,11.80
2010,03,19,13,09,11.90
2010,03,19,13,10,11.90
2010,03,19,13,11,11.90
2010,03,19,13,12,11.90
2010,03,19,13,13,11.90
2010,03,19,13,14,11.90
2010,03,19,13,15,11.90
2010,03,19,13,16,11.90
2010,03,19,13,17,11.80
2010,03,19,13,18,11.80
2010,03,19,13,19,11.80
2010,03,19,13,20,11.80
2010,03,19,13,21,11.70
2010,03,19,13,22,11.70
2010,03,19,13,23,11.60
2010,03,19,13,24,11.60
2010,03,19,13,25,11.60
2010,03,19,13,26,11.60
2010,03,19,13,27,11.60
2010,03,19,13,28,11.60
2010,03,19,13,29,11.60
2010,03,19,13,30,11.60
2010,03,19,13,31,11.60
2010,03,19,13,32,11.60
2010,03,19,13,33,11.60
2010,03,19,13,34,11.60
2010,03,19,13,35,11.60
2010,03,19,13,36,11.60
2010,03,19,13,37,11.60
2010,03,19,13,38,11.60
2010,03,19,13,39,11.60
2010,03,19,13,40,11.60
2010,03,19,13,41,11.60
2010,03,19,13,42,11.60
2010,03,19,13,43,11.70
2010,03,19,13,44,11.70
2010,03,19,13,45,11.70
2010,03,19,13,46,11.70
2010,03,19,13,47,11.80
2010,03,19,13,48,11.90
2010,03,19,13,49,12.00
2010,03,19,13,50,12.00
2010,03,19,13,51,12.10
2010,03,19,13,52,12.10
2010,03,19,13,53,12.10
2010,03,19,13,54,12.20
2010,03,19,13,55,12.20
2010,03,19,13,56,12.20
2010,03,19,13,57,12.20
2010,03,19,13,58,12.20
2010,03,19,13,59,12.30
2010,03,19,14,00,12.30
2010,03,19,14,01,12.40
2010,03,19,14,02,12.40
2010,03,19,14,03,12.40
2010,03,19,14,04,12.40
2010,03,19,14,05,12.50
2010,03,19,14,06,12.50
2010,03,19,14,07,12.50
2010,03,19,14,08,12.50
2010,03,19,14,09,12.50
2010,03,19,14,10,12.50
2010,03,19,14,11,12.50
2010,03,19,14,12,12.40
2010,03,19,14,13,12.40
2010,03,19,14,14,12.40
2010,03,19,14,15,12.40
2010,03,19,14,16,12.40
2010,03,19,14,17,12.40
2010,03,19,14,18,12.40
2010,03,19,14,19,12.40
2010,03,19,14,20,12.50
2010,03,19,14,21,12.60
2010,03,19,14,22,12.60
2010,03,19,14,23,12.60
2010,03,19,14,24,12.60
2010,03,19,14,25,12.60
2010,03,19,14,26,12.60
2010,03,19,14,27,12.60
2010,03,19,14,28,12.60
2010,03,19,14,29,12.70
2010,03,19,14,30,12.70
2010,03,19,14,31,12.80
2010,03,19,14,32,12.80
2010,03,19,14,33,12.80
2010,03,19,14,34,12.90
2010,03,19,14,35,13.00
2010,03,19,14,36,13.00
2010,03,19,14,37,13.00
2010,03,19,14,38,13.00
2010,03,19,14,39,13.00
2010,03,19,14,40,13.00
2010,03,19,14,41,12.90
2010,03,19,14,42,12.90
2010,03,19,14,43,12.90
2010,03,19,14,44,13.00
2010,03,19,14,45,13.10
2010,03,19,14,46,13.10
2010,03,19,14,47,13.10
2010,03,19,14,48,13.10
2010,03,19,14,49,13.10
2010,03,19,14,50,13.10
2010,03,19,14,51,13.10
2010,03,19,14,52,13.10
2010,03,19,14,53,13.10
2010,03,19,14,54,13.10
2010,03,19,14,55,13.00
2010,03,19,14,56,13.00
2010,03,19,14,57,13.00
2010,03,19,14,58,13.00
2010,03,19,14,59,13.00
2010,03,19,15,00,13.00
2010,03,19,15,01,13.00
2010,03,19,15,02,13.00
2010,03,19,15,03,13.00
2010,03,19,15,04,13.00
2010,03,19,15,05,13.00
2010,03,19,15,06,13.00
2010,03,19,15,07,13.10
2010,03,19,15,08,13.10
2010,03,19,15,09,13.10
2010,03,19,15,10,13.10
2010,03,19,15,11,13.20
2010,03,19,15,12,13.20
2010,03,19,15,13,13.20
2010,03,19,15,14,13.20
2010,03,19,15,15,13.30
2010,03,19,15,16,13.30
2010,03,19,15,17,13.30
2010,03,19,15,18,13.30
2010,03,19,15,19,13.30
2010,03,19,15,20,13.30
2010,03,19,15,21,13.30
2010,03,19,15,22,13.30
2010,03,19,15,23,13.30
2010,03,19,15,24,13.30
2010,03,19,15,25,13.30
2010,03,19,15,26,13.40
2010,03,19,15,27,13.40
2010,03,19,15,28,13.30
2010,03,19,15,29,13.40
2010,03,19,15,30,13.40
2010,03,19,15,31,13.40
2010,03,19,15,32,13.40
2010,03,19,15,33,13.40
2010,03,19,15,34,13.40
2010,03,19,15,35,13.40
2010,03,19,15,36,13.40
2010,03,19,15,37,13.50
2010,03,19,15,38,13.50
2010,03,19,15,39,13.50
2010,03,19,15,40,13.50
2010,03,19,15,41,13.60
2010,03,19,15,42,13.50
2010,03,19,15,43,13.50
2010,03,19,15,44,13.60
2010,03,19,15,45,13.60
2010,03,19,15,46,13.60
2010,03,19,15,47,13.70
2010,03,19,15,48,13.70
2010,03,19,15,49,13.70
2010,03,19,15,50,13.80
2010,03,19,15,51,13.80
2010,03,19,15,52,13.90
2010,03,19,15,53,13.90
2010,03,19,15,54,14.00
2010,03,19,15,55,14.00
2010,03,19,15,56,14.00
2010,03,19,15,57,14.10
2010,03,19,15,58,14.10
2010,03,19,15,59,14.10
2010,03,19,16,00,14.00
2010,03,19,16,01,13.90
2010,03,19,16,02,13.90
2010,03,19,16,03,13.80
2010,03,19,16,04,13.80
2010,03,19,16,05,13.70
2010,03,19,16,06,13.70
2010,03,19,16,07,13.70
2010,03,19,16,08,13.60
2010,03,19,16,09,13.60
2010,03,19,16,10,13.60
2010,03,19,16,11,13.60
2010,03,19,16,12,13.60
2010,03,19,16,13,13.60
2010,03,19,16,14,13.60
2010,03,19,16,15,13.60
2010,03,19,16,16,13.60
2010,03,19,16,17,13.50
2010,03,19,16,18,13.40
2010,03,19,16,19,13.40
2010,03,19,16,20,13.40
2010,03,19,16,21,13.40
2010,03,19,16,22,13.40
2010,03,19,16,23,13.40
2010,03,19,16,24,13.40
2010,03,19,16,25,13.50
2010,03,19,16,26,13.60
2010,03,19,16,27,13.60
2010,03,19,16,28,13.60
2010,03,19,16,29,13.70
2010,03,19,16,30,13.70
2010,03,19,16,31,13.80
2010,03,19,16,32,13.80
2010,03,19,16,33,13.80
2010,03,19,16,34,13.80
2010,03,19,16,35,13.90
2010,03,19,16,36,13.90
2010,03,19,16,37,13.80
2010,03,19,16,38,13.80
2010,03,19,16,39,13.80
2010,03,19,16,40,13.80
2010,03,19,16,41,13.80
2010,03,19,16,42,13.90
2010,03,19,16,43,13.90
2010,03,19,16,44,13.90
2010,03,19,16,45,13.90
2010,03,19,16,46,13.90
2010,03,19,16,47,13.90
2010,03,19,16,48,13.90
2010,03,19,16,49,13.90
2010,03,19,16,50,13.90
2010,03,19,16,51,13.90
2010,03,19,16,52,13.90
2010,03,19,16,53,13.90
2010,03,19,16,54,13.90
2010,03,19,16,55,13.90
2010,03,19,16,56,13.90
2010,03,19,16,57,13.90
2010,03,19,16,58,13.90
2010,03,19,16,59,13.90
2010,03,19,17,00,13.80
2010,03,19,17,01,13.80
2010,03,19,17,02,13.70
2010,03,19,17,03,13.70
2010,03,19,17,04,13.70
2010,03,19,17,05,13.70
2010,03,19,17,06,13.70
2010,03,19,17,07,13.70
2010,03,19,17,08,13.70
2010,03,19,17,09,13.80
2010,03,19,17,10,13.80
2010,03,19,17,11,13.80
2010,03,19,17,12,13.80
2010,03,19,17,13,13.80
2010,03,19,17,14,13.90
2010,03,19,17,15,13.90
2010,03,19,17,16,13.90
2010,03,19,17,17,13.90
2010,03,19,17,18,13.90
2010,03,19,17,19,13.90
2010,03,19,17,20,13.90
2010,03,19,17,21,14.00
2010,03,19,17,22,14.00
2010,03,19,17,23,14.10
2010,03,19,17,24,14.10
2010,03,19,17,25,14.10
2010,03,19,17,26,14.00
2010,03,19,17,27,14.00
2010,03,19,17,28,13.90
2010,03,19,17,29,13.90
2010,03,19,17,30,13.90
2010,03,19,17,31,13.80
2010,03,19,17,32,13.80
2010,03,19,17,33,13.80
2010,03,19,17,34,13.70
2010,03,19,17,35,13.70
2010,03,19,17,36,13.70
2010,03,19,17,37,13.70
2010,03,19,17,38,13.70
2010,03,19,17,39,13.70
2010,03,19,17,40,13.70
2010,03,19,17,41,13.70
2010,03,19,17,42,13.70
2010,03,19,17,43,13.80
2010,03,19,17,44,13.80
2010,03,19,17,45,13.80
2010,03,19,17,46,13.80
2010,03,19,17,47,13.80
2010,03,19,17,48,13.70
2010,03,19,17,49,13.80